This is the latest recevied weather packets stored in our database for station/object M0HZQ-1. If no packets are shown the sender has not sent any weather packets the latest 10 day(s).
| Time | Temp. | Humidity | Pressure | Rain* | Wind** | Luminosity | Snow |
|---|---|---|---|---|---|---|---|
| 1777477749 | 18.33° C | 29% | 1023.8 hPa | 0 mm | - | - | - |
| 1777476729 | 17.78° C | 29% | 1023.8 hPa | 0 mm | - | - | - |
| 1777475677 | 18.33° C | 29% | 1024 hPa | 0 mm | - | - | - |
| 1777474484 | 18.33° C | 29% | 1024.3 hPa | 0 mm | - | - | - |
| 1777473307 | 17.78° C | 30% | 1024.3 hPa | 0 mm | - | - | - |
| 1777472309 | 17.78° C | 30% | 1024.4 hPa | 0 mm | - | - | - |
| 1777471137 | 17.78° C | 30% | 1024.3 hPa | 0 mm | - | - | - |
| 1777470149 | 18.33° C | 28% | 1024.3 hPa | 0 mm | - | - | - |
| 1777469004 | 17.78° C | 28% | 1024.4 hPa | 0 mm | - | - | - |
| 1777467804 | 17.78° C | 27% | 1024.3 hPa | 0 mm | - | - | - |
| 1777466659 | 17.78° C | 27% | 1024.4 hPa | 0 mm | - | - | - |
| 1777465614 | 17.22° C | 27% | 1024.5 hPa | 0 mm | - | - | - |
| 1777464577 | 18.33° C | 28% | 1024.4 hPa | 0 mm | - | - | - |
| 1777463597 | 17.78° C | 29% | 1024.9 hPa | 0 mm | - | - | - |
| 1777462507 | 17.78° C | 30% | 1024.8 hPa | 0 mm | - | - | - |
| 1777461374 | 17.22° C | 31% | 1024.9 hPa | 0 mm | - | - | - |
| 1777460224 | 17.78° C | 31% | 1024.9 hPa | 0 mm | - | - | - |
| 1777459117 | 17.22° C | 31% | 1024.8 hPa | 0 mm | - | - | - |
| 1777457994 | 17.22° C | 31% | 1024.9 hPa | 0 mm | - | - | - |
| 1777456977 | 17.22° C | 33% | 1025 hPa | 0 mm | - | - | - |
| 1777455854 | 16.67° C | 34% | 1024.8 hPa | 0 mm | - | - | - |
| 1777454704 | 16.11° C | 35% | 1024.6 hPa | 0 mm | - | - | - |
| 1777453637 | 16.11° C | 38% | 1024.5 hPa | 0 mm | - | - | - |
| 1777452609 | 15.56° C | 41% | 1024.6 hPa | 0 mm | - | - | - |
| 1777451424 | 15° C | 44% | 1024.6 hPa | 0 mm | - | - | - |
* Rain latest hour (hover to see other rain measurements)
** Current wind speed in m/s (hover to see current wind gust speed)